RH
73 72 69 65 63 58 56 54 52 54 53 51 50 48 44 45 43 44 46 52 51 52 55 58 58 61 65 67 70 72 72 71 76 74 70 69 66 65 65 66 68 71 73
71 70 68 65 63 60 57 56 56 54 51 50 49 46 44 44 43 44 47 49 52 53 54 60 65 68 71 70 71 71 70 70 71 78 74 72 70 68 68 68 68 69 69
71 68 68 65 63 61 59 58 57 52 51 50 47 46 44 42 44 45 47 51 53 55 57 64 68 72 72 69 67 68 71 72 78 82 81 76 70 67 69 71 70 68 64
72 70 68 66 65 62 61 59 55 52 50 48 47 44 41 38 42 47 50 53 55 59 69 76 76 76 75 72 76 86 87 82 79 80 77 75 75 72 68 66 67 69 73
73 71 70 69 65 63 62 58 54 51 49 47 44 39 32 32 38 51 53 56 60 72 78 80 79 78 79 87 82 80 80 81 82 85 82 79 74 69 69 70 75 75 76
75 73 72 69 66 64 60 57 53 51 48 45 37 31 32 35 39 54 60 72 81 82 79 73 69 77 81 86 86 87 89 90 94 95 88 78 74 69 73 74 85 90 86
75 74 72 68 66 62 58 55 54 52 47 40 34 33 38 40 65 79 85 87 90 80 76 72 72 75 83 81 81 81 82 86 80 75 78 74 73 76 82 92 88 91 89
76 73 70 67 63 59 56 55 54 52 45 39 38 39 43 49 80 86 91 88 86 77 76 76 79 78 82 83 78 81 76 71 68 70 72 78 85 90 82 86 91 92 87
73 70 68 65 61 58 56 56 55 49 44 41 42 47 50 56 86 90 89 89 80 79 79 83 83 81 79 83 78 78 72 70 69 74 78 76 77 80 81 85 90 88 86
70 68 65 62 59 57 57 57 55 48 51 50 53 54 61 64 84 88 90 85 87 83 84 80 81 83 86 83 80 77 76 73 78 79 75 75 74 77 80 82 88 94 92
67 65 63 60 58 60 60 58 55 56 59 62 64 67 70 69 84 93 90 87 84 84 78 75 73 83 82 85 85 78 81 83 84 79 82 84 82 80 81 86 89 95 95
66 64 63 64 64 64 61 64 62 66 73 75 74 80 80 81 86 92 92 86 88 85 83 74 81 82 84 86 83 86 86 84 80 86 87 84 84 85 87 89 91 93 94
67 69 69 68 69 70 70 76 81 82 86 89 87 86 78 82 90 92 90 86 86 82 81 88 86 83 84 80 82 86 83 77 85 88 84 85 87 89 90 89 88 90 93
73 73 76 80 85 86 87 89 91 93 96 98 90 74 79 84 83 83 85 87 84 84 89 81 77 85 85 86 81 80 80 83 88 88 89 89 87 88 89 87 89 90 93
89 92 94 96 97 97 97 96 97 97 96 88 80 81 83 82 81 86 90 87 84 91 72 88 86 85 83 82 81 83 84 86 88 89 91 91 88 89 90 89 90 90 92
96 97 97 97 97 97 97 98 97 94 90 90 92 92 91 86 87 92 94 92 94 67 90 91 88 87 84 84 88 90 91 90 91 94 94 93 92 93 92 90 89 89 91
96 97 97 97 97 97 97 96 96 94 88 88 89 91 88 88 93 96 89 74 92 84 93 90 91 90 89 91 95 93 93 94 96 94 96 94 95 94 91 92 91 88 88
97 98 97 97 97 97 97 97 96 94 96 98 91 90 90 92 96 77 60 63 84 92 96 95 96 98 97 98 99 97 97 95 95 96 95 96 95 95 94 92 91 91 92
97 97 97 97 97 98 98 98 97 96 97 98 99 99 95 98 97 82 68 89 94 93 98 99 100 100 100 100 100 100 99 97 94 98 95 95 94 95 93 93 92 86 87
97 97 98 97 97 97 97 97 97 96 95 91 90 91 91 86 86 89 89 95 98 98 100 100 100 100 100 100 100 100 100 99 98 96 95 96 94 96 96 93 93 93 92
98 98 97 97 97 97 97 96 95 95 93 92 94 93 92 83 91 89 86 92 86 89 96 100 100 100 100 100 100 100 100 100 100 99 98 96 98 92 91 92 92 93 94
97 97 97 97 97 97 97 97 97 97 99 100 97 96 85 69 78 75 74 71 71 75 80 86 90 95 95 100 100 100 100 100 100 99 98 97 93 92 92 94 91 92 94
98 97 97 97 97 97 97 98 99 98 97 96 94 87 74 73 73 73 74 75 74 73 75 77 78 78 80 85 88 100 100 100 100 99 98 96 96 94 92 94 95 95 95
96 97 98 98 97 98 98 99 97 94 94 93 87 74 71 71 74 75 75 78 77 74 75 75 77 78 76 77 82 86 100 99 100 99 97 99 97 94 97 97 96 98 98
96 97 97 97 97 97 98 96 95 94 89 76 67 66 67 70 74 76 76 79 76 71 71 70 73 78 76 74 75 85 98 100 98 97 96 100 97 100 98 100 98 98 98
95 95 95 95 95 93 87 84 82 75 70 66 67 67 68 71 74 76 78 78 79 76 71 72 74 75 75 74 76 86 100 100 98 93 96 96 100 100 99 100 99 100 98
Wind_Speed
41 41 40 40 39 38 38 38 38 35 34 34 32 27 24 20 18 15 12 11 10 9 8 8 8 9 11 12 14 16 18 20 20 31 32 32 35 36 36 36 35 37 38
37 37 36 37 37 37 36 36 36 35 34 34 31 27 23 20 18 15 14 11 11 10 8 8 9 9 11 13 15 18 20 22 25 29 33 34 35 37 38 38 36 34 35
33 34 35 36 38 37 35 35 34 33 33 31 30 27 24 21 18 15 14 12 11 9 9 9 9 10 12 13 16 18 20 22 25 29 34 34 35 36 38 35 34 36 36
31 33 35 36 37 37 35 36 36 35 38 33 29 26 24 22 19 16 13 11 9 9 9 8 9 10 12 14 16 19 23 24 26 28 31 35 33 34 33 36 35 31 34
30 30 31 32 34 34 35 36 36 36 36 37 35 30 26 23 19 16 13 11 10 8 8 8 9 11 13 15 19 22 24 25 25 27 30 32 32 32 30 33 37 39 36
27 27 27 30 31 32 34 36 36 35 40 40 35 32 27 23 19 17 13 10 9 8 7 7 9 11 13 15 19 21 24 26 28 28 29 30 33 33 35 34 38 33 18
26 27 28 29 29 30 32 34 35 38 39 37 33 29 24 19 17 15 12 8 7 6 6 7 10 11 13 15 18 21 24 25 27 31 32 32 37 36 40 39 37 36 34
23 25 28 30 30 31 31 31 30 35 36 36 32 27 23 19 16 13 11 7 6 6 5 7 10 14 13 16 20 23 26 26 25 27 31 35 36 39 39 40 40 42 40
23 25 27 30 31 32 31 31 33 36 34 33 29 25 22 18 15 12 10 7 6 4 5 7 10 13 14 18 22 24 25 27 26 28 32 36 38 36 35 37 32 30 19
22 24 26 28 31 31 32 34 32 34 31 29 26 22 17 16 13 11 9 6 3 4 6 8 10 11 16 19 20 22 24 25 32 34 32 30 31 32 31 29 33 28 27
25 28 29 30 31 32 33 33 34 31 30 26 23 19 16 13 12 10 7 4 2 4 7 9 9 12 18 19 19 19 22 30 31 29 30 31 29 29 30 29 31 32 31
27 28 30 31 31 34 37 33 32 32 28 24 23 17 12 11 10 9 4 2 2 4 8 9 10 16 17 18 18 19 24 27 25 28 28 28 29 30 33 34 37 38 37
27 27 29 30 31 33 36 32 29 28 26 22 18 15 13 10 9 8 5 1 2 5 6 8 13 14 15 16 18 21 21 21 24 26 27 28 30 34 37 36 34 35 36
26 28 29 32 31 29 29 28 26 23 21 18 17 16 14 11 9 6 4 1 2 3 6 9 10 11 12 14 17 19 20 23 25 26 28 32 34 33 34 34 33 36 35
25 27 29 29 30 30 27 26 24 23 22 20 17 17 16 12 8 7 5 3 2 4 5 6 8 10 13 16 19 21 22 24 25 27 30 32 32 33 34 35 32 34 30
24 25 28 29 28 28 27 24 20 20 18 18 18 17 13 12 10 8 7 6 4 6 4 7 9 11 14 18 21 22 25 25 26 30 31 31 33 33 35 36 32 30 29
24 25 28 28 26 26 26 27 26 24 21 19 16 14 14 13 11 9 7 6 5 5 7 8 10 12 16 19 20 22 25 27 29 28 30 32 33 33 35 33 32 31 32
27 27 27 26 26 27 24 25 24 24 21 19 16 15 13 12 10 8 6 4 5 7 7 9 11 13 15 18 21 23 25 28 28 30 31 31 33 33 34 32 31 30 32
23 23 24 24 23 24 25 24 23 21 18 17 16 15 12 10 10 9 9 9 7 7 8 9 11 13 14 17 21 23 26 27 30 30 30 32 34 33 34 33 32 36 37
23 25 24 23 23 23 23 22 20 18 17 15 11 9 7 7 7 8 9 8 6 6 8 10 12 13 15 17 21 24 26 28 29 30 32 34 36 33 32 34 32 32 32
23 23 24 23 22 22 20 19 19 18 16 15 13 10 9 10 8 7 7 7 9 10 11 12 14 15 18 20 23 26 27 29 31 33 35 36 34 37 35 33 32 32 32
21 22 23 21 21 21 19 18 16 16 15 15 13 10 9 10 8 7 8 9 10 11 12 14 17 18 21 23 25 26 28 30 34 38 36 33 38 36 35 32 32 31 31
21 23 24 22 21 22 18 15 14 13 12 12 9 9 7 8 7 7 9 10 12 13 14 16 20 24 25 29 31 26 27 32 38 39 37 38 37 36 35 32 31 29 29
21 20 21 21 20 18 17 15 14 13 12 10 9 8 7 7 7 8 10 12 13 16 18 20 22 23 27 29 33 31 31 36 42 38 38 37 36 37 34 31 28 29 29
20 19 18 18 18 17 17 14 13 11 11 10 10 8 7 6 7 9 10 13 16 18 20 22 24 27 28 29 33 31 32 37 43 37 38 34 36 35 32 30 27 26 29
19 19 20 20 18 16 15 15 13 11 9 9 8 7 6 5 6 9 11 15 18 20 22 24 26 28 31 31 35 32 33 38 39 37 37 34 33 33 32 30 28 26 26
Wind_Direction
189 189 188 188 188 186 182 180 178 177 179 182 185 185 186 186 188 186 187 192 194 203 210 220 238 247 259 267 269 271 272 275 277 287 293 299 301 302 301 299 296 295 293
187 187 185 184 183 182 180 177 177 178 180 182 183 183 184 185 187 188 188 194 202 208 216 225 239 253 262 270 274 278 281 283 285 291 297 301 301 303 299 299 298 297 296
184 182 182 181 180 179 177 174 176 176 176 177 179 180 182 185 187 189 191 195 202 211 219 232 246 255 270 277 282 285 287 289 291 291 295 298 299 303 303 302 302 300 298
182 181 180 179 177 175 173 172 173 175 173 175 177 179 183 186 189 190 191 196 203 214 225 238 253 263 275 285 286 287 288 291 296 293 295 298 301 306 305 306 306 303 301
179 178 178 176 175 171 168 169 169 169 171 174 177 181 183 186 187 186 190 193 201 216 233 248 261 268 275 278 284 289 295 296 297 297 297 301 304 309 308 310 303 306 303
171 176 176 175 170 168 165 163 162 163 172 179 180 181 181 186 188 186 181 188 202 220 238 262 276 284 286 287 286 288 289 295 295 296 299 300 303 306 308 309 305 308 305
172 171 171 170 167 164 160 157 157 162 169 172 176 178 179 181 178 180 185 193 203 224 246 271 287 291 293 296 298 296 296 295 295 298 298 298 303 305 304 306 305 301 298
167 169 166 163 159 157 156 154 150 155 162 168 172 174 175 174 174 174 176 191 209 234 259 283 292 298 300 300 301 301 301 301 299 298 296 298 296 299 301 303 302 298 294
167 167 164 160 155 153 151 148 149 154 160 168 170 170 171 165 167 164 170 188 217 251 278 287 290 296 302 306 307 309 307 305 306 304 301 301 301 301 303 306 302 303 297
161 157 156 154 152 151 148 147 150 154 155 160 162 167 160 158 160 164 173 193 231 282 292 291 291 294 306 312 316 313 309 313 313 311 311 310 307 306 307 302 298 294 294
153 151 151 153 151 147 142 145 145 144 147 151 152 151 152 151 155 161 174 193 254 288 295 295 295 305 318 319 316 311 311 317 315 314 312 307 309 309 307 304 298 291 289
149 147 146 144 142 142 140 139 142 143 140 142 140 133 136 141 147 158 164 181 276 288 286 298 307 317 321 319 318 316 321 323 318 312 309 311 314 313 310 307 302 295 286
146 141 139 136 138 140 138 136 135 141 139 139 135 134 143 146 151 153 148 143 290 284 291 300 310 317 323 322 321 325 328 323 312 312 314 315 314 311 309 309 309 305 300
141 137 136 133 132 131 129 133 135 138 136 136 144 148 146 146 145 140 137 181 304 325 320 312 321 326 327 324 329 331 327 320 316 313 314 316 316 317 314 313 313 316 310
135 132 129 131 130 128 130 138 142 148 147 148 147 146 146 140 136 118 106 99 31 346 339 336 343 338 337 339 336 328 324 324 322 323 320 316 318 318 314 315 315 318 309
131 132 129 127 126 129 128 122 128 130 134 131 131 131 129 127 119 106 103 94 54 12 14 351 345 341 344 341 332 323 325 324 322 322 316 316 318 317 316 317 318 319 312
129 127 127 128 131 131 131 131 130 127 121 122 124 129 128 124 113 105 104 100 54 15 24 353 336 342 342 337 329 324 320 321 320 319 318 318 316 316 317 316 319 320 315
134 134 132 133 132 135 138 134 130 127 124 117 125 124 125 115 105 98 101 88 54 26 15 344 337 342 336 328 328 323 321 321 321 320 320 316 317 317 316 317 319 321 318
121 121 123 126 127 124 121 117 120 120 117 116 113 111 116 109 94 82 75 69 48 25 357 338 336 333 328 325 328 325 323 322 323 320 318 317 316 317 316 316 317 322 320
116 120 119 118 117 117 118 118 119 122 125 124 119 124 126 114 89 66 58 53 40 16 353 338 334 329 331 329 330 327 323 323 324 321 320 316 316 316 314 319 319 320 319
113 113 116 113 112 115 119 122 125 125 123 118 112 105 110 106 89 65 47 29 20 7 351 339 336 336 337 336 331 327 324 321 323 321 319 316 317 323 320 318 319 320 319
110 112 113 113 116 117 121 125 126 123 124 118 112 100 95 91 79 61 43 26 13 1 349 342 342 341 341 339 333 325 322 322 321 316 317 323 325 323 320 321 322 321 320
113 113 112 114 117 119 115 117 118 120 118 113 114 106 93 81 62 45 28 13 5 4 357 351 347 346 347 349 345 332 324 322 322 321 329 327 324 322 323 321 321 320 322
111 111 112 115 119 116 115 113 115 115 113 106 101 94 80 63 47 28 16 1 3 3 360 358 352 346 345 344 345 342 338 327 324 327 331 326 324 322 321 319 320 317 323
116 115 114 114 116 119 120 121 118 119 119 116 106 92 75 52 27 16 5 354 358 357 357 355 353 351 347 345 345 343 339 329 331 336 334 330 325 321 321 319 318 318 322
124 125 125 128 126 124 124 124 122 123 117 113 104 87 66 39 16 5 356 358 355 350 353 351 349 350 350 347 346 341 333 330 335 338 338 332 328 325 325 322 321 320 321